Location: Courcelles
(49.2596°N, 1.7419°E)
Time: 21:37:02
(UTC+00:00)

Cosmos 2233 Rocket - Pass Details

Date: 17 November 2025
Orbit: 953 x 989 km, 82.9° (Epoch: 05 December)

Event Time Altitude Azimuth Distance (km) Brightness Sun altitude
Rises 16:59:45 0° 183° (S) 3,678 7.3 -8.4°
Reaches altitude 10° 17:02:15 10° 183° (S) 2,737 6.7 -8.8°
Maximum altitude 17:08:33 82° 97° (E) 1,005 4.0 -9.8°
Drops below altitude 10° 17:14:54 10° 11° (N) 2,762 6.1 -10.7°
Sets 17:17:26 0° 11° (N) 3,713 6.8 -11.1°
